This demonstration page uses our WeatherBlox Daily Observations layout. Learn more.

Left ArrowRight Arrow

Hourly Observations for May 2, 2016

Temp ( °F °C ) Dew Point ( °F °C ) Humidity (%) Winds ( mph kmh ) Pressure ( in mb ) Visibility ( mi km ) Precip ( " mm )
12:54 am 00:54 Cloudy 49 9.4 43 6.1 80 80 NW 3 6 30.20 1023 10 16 0.00 0.00
1:54 am 01:54 Cloudy 49 9.4 43 6.1 80 80 NNW 6 9 30.19 1022 10 16 0.00 0.00
2:54 am 02:54 Cloudy 49 9.4 43 6.1 80 80 NW 5 7 30.17 1022 10 16 0.00 0.00
3:54 am 03:54 Cloudy 49 9.4 42 5.6 77 77 NNW 7 11 30.17 1022 10 16 0.00 0.00
4:54 am 04:54 Cloudy 49 9.4 41 5 74 74 NNW 7 11 30.16 1021 10 16 0.00 0.00
5:54 am 05:54 Cloudy 48 8.9 41 5 77 77 NNW 7 11 30.16 1021 10 16 0.00 0.00
6:54 am 06:54 Cloudy 48 8.9 41 5 77 77 NNW 6 9 30.16 1021 10 16 0.00 0.00
7:54 am 07:54 Partly Cloudy 50 10 40 4.4 68 68 NNW 10 17 30.17 1022 10 16 0.00 0.00
8:54 am 08:54 Sunny 53 11.7 40 4.4 61 61 N 10 17 30.17 1022 10 16 0.00 0.00
9:54 am 09:54 Sunny 57 13.9 40 4.4 53 53 N 8 13 30.16 1021 10 16 0.00 0.00
10:54 am 10:54 Sunny 60 15.6 39 3.9 46 46 NNE 8 13 30.15 1021 10 16 0.00 0.00
11:54 am 11:54 Mostly Sunny 60 15.6 38 3.3 44 44 NNE 5 7 30.14 1021 10 16 0.00 0.00
12:54 pm 12:54 Mostly Cloudy 60 15.6 38 3.3 44 44 N 6 9 30.13 1020 10 16 0.00 0.00
1:54 pm 13:54 Mostly Cloudy 62 16.7 38 3.3 41 41 N 6 9 30.11 1020 10 16 0.00 0.00
2:54 pm 14:54 Mostly Cloudy 64 17.8 36 2.2 35 35 Calm 30.10 1019 10 16 0.00 0.00
3:54 pm 15:54 Mostly Cloudy 63 17.2 35 1.7 35 35 VRB 5 7 30.08 1019 10 16 0.00 0.00
4:54 pm 16:54 Mostly Cloudy 65 18.3 35 1.7 33 33 NNE 6 9 30.06 1018 10 16 0.00 0.00
5:54 pm 17:54 Partly Cloudy 64 17.8 36 2.2 35 35 WNW 5 7 30.06 1018 10 16 0.00 0.00
6:54 pm 18:54 Sunny 63 17.2 36 2.2 37 37 VRB 3 6 30.06 1018 10 16 0.00 0.00
7:54 pm 19:54 Sunny 61 16.1 36 2.2 39 39 WSW 3 6 30.06 1018 10 16 0.00 0.00
8:54 pm 20:54 Clear 59 15 39 3.9 48 48 Calm 30.06 1018 10 16 0.00 0.00
9:54 pm 21:54 Clear 53 11.7 41 5 64 64 Calm 30.06 1018 10 16 0.00 0.00
10:54 pm 22:54 Clear 50 10 39 3.9 66 66 Calm 30.06 1018 10 16 0.00 0.00
11:54 pm 23:54 Clear 51 10.6 42 5.6 71 71 Calm 30.06 1018 10 16 0.00 0.00

Powered by AerisWeather